Tracking 35275 objects as of 8-Sep-2026
HD Live streaming from Space Station
objects crossing your sky now

TITAN 34B R/B

Track TITAN 34B R/B now!


NORAD ID: 15227
Int'l Code: 1984-091B
Launch date: August 28, 1984
Source: United States (US)
Launch site: AIR FORCE WESTERN TEST RANGE (AFWTR)

Note: This is a ROCKET BODY
Your satellite tracking list
Your tracking list is empty




NASA's NSSDC Master Catalog

Two Line Element Set (TLE):
1 15227U 84091B   26245.91645594 -.00000118  00000-0  13390-2 0  9990
2 15227  63.1411 237.3229 7169268 271.3315  15.1106  2.07964854 56150
Source of the keplerian elements: AFSPC